www.pogodaiklimat.ru

Погода и климат >> Архив погоды >> Россия >> Якутия >> Оленек


ПОГОДА в Оленеке

АРХИВ ПОГОДЫ в Оленеке

Время (UTC), дата Ветер
(напр.,м/с)
 
Видим.   Явления Облачность Т
(С)
Тd
(С)
f
(%)
Тe
(С)
Тes
(С)
Комфортность P
(гПа)
Po
(гПа)
Тmin
(С)
Tmax
(С)
R
(мм)
S
(см)
18 20.03 З 1 н/о н/о -8.2 -10.7 82 -11 -11 1025.2 996.7
21 20.03 СЗ 1 н/о н/о -9.3 -11.5 84 -12 -12 1025.2 996.6
00 21.03 З 1 50 км 8/0
[Ci fib]
-9.7 -11.4 87 -12 -11 1025.1 996.4 -10.5 41
03 21.03 З 3 50 км 3/0
[Ci fib]
-6.7 -10.9 72 -12 -10 1024.4 996.0
06 21.03 ЮЗ 3 50 км 3/0
[Ci fib]
-3.3 -10.2 59 -8 -6 1022.9 995.0
09 21.03 З 3 50 км 3/0
[Ci fib]
-2.2 -10.3 54 -7 -6 1021.9 994.1
12 21.03 З 1 н/о н/о -5.2 -10.5 66 -7 -7 1021.8 993.7 -2.2
15 21.03 СВ 1 н/о н/о -6.9 -10.5 75 -9 -9 1021.1 992.8
18 21.03 СЗ 1 н/о н/о -11.3 -12.7 89 -14 -14 1021.2 992.5
21 21.03 СЗ 2 н/о н/о -11.7 -13.2 89 -16 -16 1021.5 992.6
00 22.03 З 3 50 км 10/8 750 м
[Sc Ac und]
-13.1 -15.1 85 -19 -19 1023.3 994.3 -13.9 41
03 22.03 З 2 50 км 6/0
[Ci fib]
-8.8 -13.2 70 -13 -11 1023.8 995.3
06 22.03 ЮЗ 1 50 км 10/6 800 м
[Sc Ac trans]
-4.3 -11.3 58 -6 -6 1024.0 995.9
09 22.03 ЮЗ 1 50 км 6/0
[Ci fib]
-2.6 -10.0 57 -4 -4 1024.2 996.3
12 22.03 ЮЗ 1 н/о н/о -6.3 -11.1 69 -8 -8 1024.9 996.6
15 22.03 З 1 н/о н/о -7.8 -11.3 76 -10 -10 1024.7 996.2
18 22.03 штиль 0 н/о н/о -13.3 -14.7 89 -13 -13 1024.0 994.9
21 22.03 СВ 1 н/о н/о -14.4 -16.3 85 -17 -17 1023.4 994.2
00 23.03 СВ 1 50 км 4/0
[Ci fib]
-14.3 -16.3 85 -17 -16 1021.6 992.5 -18.0 41
03 23.03 ЮВ 1 50 км 6/0
[Ci fib]
-10.3 -12.3 85 -13 -9 1019.6 991.0
06 23.03 Ю 2 50 км 10/0
[Ci sp]
-2.8 -10.3 56 -6 -4 1016.2 988.5
09 23.03 ЮЗ 3 50 км 10/0
[As op]
-2.9 -10.5 56 -8 -7 1015.5 987.8
12 23.03 ЮЗ 2 н/о н/о -5.2 -11.2 63 -9 -9 1015.3 987.3
15 23.03 штиль 0 н/о н/о -6.9 -11.4 70 -7 -7 1015.1 987.0
18 23.03 З 1 н/о н/о -9.3 -12.3 79 -12 -12 1015.0 986.6
21 23.03 С 1 н/о н/о -10.1 -12.0 86 -12 -12 1015.6 987.1
00 24.03 СЗ 1 50 км в посл. час снег 10/0
[Ac As Cs]
-10.6 -11.9 90 -13 -12 1016.4 987.9 -11.1 0.2 41
03 24.03 З 2 50 км 5/0
[Ci sp]
-7.2 -11.5 71 -11 -9 1016.4 988.2
06 24.03 З 2 50 км 10/0
[Ci sp]
-4.7 -10.4 64 -9 -6 1016.5 988.6
09 24.03 ЮЗ 2 50 км 5/0
[Ci sp]
-3.5 -10.0 61 -7 -6 1016.7 988.9
12 24.03 СЗ 1 н/о н/о -7.0 -10.8 74 -9 -9 1017.5 989.3 -3.4
15 24.03 В 2 н/о н/о -8.8 -11.1 83 -13 -13 1016.5 988.1
18 24.03 В 3 н/о н/о -12.0 -13.4 89 -18 -18 1015.4 986.7
21 24.03 В 1 н/о н/о -12.3 -14.0 87 -15 -15 1013.7 985.0
00 25.03 В 2 н/о н/о -10.6 -12.4 87 -15 -15 1011.9 983.5 -12.4
03 25.03 Ю 2 н/о н/о -5.6 -10.9 66 -10 -10 1009.8 981.9
06 25.03 ЮЗ 4 н/о н/о -1.0 -9.9 51 -6 -6 1008.0 980.7
09 25.03 З 3 н/о н/о -0.1 -10.8 44 -4 -4 1007.9 980.7
12 25.03 ЮЗ 2 н/о н/о -2.4 -11.5 50 -6 -6 1008.0 980.6 -0.0
15 25.03 З 2 н/о н/о -3.7 -12.2 52 -7 -7 1007.7 980.1
18 25.03 З 2 н/о н/о -5.8 -13.4 55 -10 -10 1007.7 979.9
21 25.03 Ю 1 н/о н/о -7.8 -14.3 60 -10 -10 1007.5 979.5
00 26.03 ЮВ 1 н/о н/о -7.3 -14.5 56 -9 -9 1005.9 978.0 -8.6
03 26.03 ЮВ 1 н/о н/о -3.9 -14.0 45 -5 -5 1003.1 975.6
06 26.03 Ю 2 н/о н/о +0.5 -13.1 35 -2 -2 999.3 972.4
09 26.03 Ю 3 н/о н/о +3.1 -11.7 33 0 0 996.1 969.4
12 26.03 Ю 4 н/о н/о +0.8 -11.8 38 -4 -4 995.3 968.5 +3.1
15 26.03 Ю 4 н/о н/о +0.5 -9.8 46 -4 -4 993.3 966.5
18 26.03 З 3 н/о н/о -0.3 -7.7 57 -4 -4 993.1 966.3
21 26.03 ЮЗ 1 н/о н/о -2.8 -3.6 94 -5 -5 993.8 966.7
00 27.03 З 3 4000 м слабый снег 10/8 180 м
[Frnb As op]
-2.9 -3.9 93 -8 -8 994.8 967.6 -2.9 2 41
03 27.03 З 4 2000 м слабый ливневой снег 10/9 150 м
[Cb cap As op]
-3.0 -4.7 88 -9 -9 996.4 969.2 -3.0
06 27.03 СЗ 6
{10}
50 км в посл. час ливневой снег 10/4 300 м
[Cb cap Ci sp]
-3.8 -10.0 62 -11 -10 1001.3 973.9
09 27.03 СЗ 6
{11}
20 км слабый ливневой снег 10/6 540 м
[Cb cap As op]
-4.9 -10.2 66 -12 -12 1005.1 977.5
12 27.03 З 2
{11}
н/о н/о -10.1 -18.9 49 -14 -14 1009.4 981.1

 

Местоположение метеостанции Оленек (Якутия, Россия): широта 68.50 долгота 112.40 высота над уровнем моря 220 м.

В архиве по умолчанию представлена погода в Оленеке за последнюю неделю. Архивные данные за месяц целиком и за предыдущие месяцы, начиная с января 2011 года, Вы можете получить, выбрав интересующий диапазон дат из раскрывающегося списка и нажав кнопку "Ввод!".

Внимание! Время в таблицах - всемирное. Для получения местного времени необходимо прибавить поправку, которая в Оленеке равна 9 ч.

Смотрите также архив погоды в соседних городах и на ближайших метеорологических станциях:

Погода в Джалинде (Якутия, Россия) (191 км)
Погода в Полярном (Якутия, Россия) (197 км)
Погода в Ярольине (Якутия, Россия) (224 км)
Погода в Сухане (Якутия, Россия) (240 км)
Погода в Шелагонцах (Якутия, Россия) (262 км)
Погода в Эйке (Якутия, Россия) (349 км)
Погода в Саскылахе (Якутия, Россия) (391 км)
Погода в Хабардино (Якутия, Россия) (434 км)
Погода в Джарджане (Якутия, Россия) (470 км)
Погода в Жиганске (Якутия, Россия) (498 км)

Пояснения к столбцам:

Ветер - указаны скорость ветра в м/с - средняя за 10 мин, порывы в срок и между сроками (в фигурных скобках) и направление, откуда дует ветер: С - северный, СВ - северо-восточный, В - восточный, ЮВ - юго-восточный, Ю - южный, ЮЗ - юго-западный, З - западный, СЗ - северо-западный.
Видимость - горизонтальная дальность видимости в метрах или километрах. При видимости от 1 до 10 км при отсутствии осадков обычно наблюдается дымка, при ухудшении видимости до 1 км и менее - туман. В сухую погоду видимость может ухудшаться дымом, пылью или мглою.
Явления - указаны атмосферные явления, наблюдавшиеся в срок или в последний час перед сроком; фигурными скобками обозначены явления, наблюдавшиеся между сроками (за 1-3 часа до срока); квадратными скобками обозначены град или гололедные отложения с указанием их диаметра в мм.
Облачность - указаны через наклонную черту общая и нижняя облачность в баллах и высота нижней границы облаков в метрах; квадратными скобками обозначены формы облаков: Ci - перистые, Cs - перисто-слоистые, Cc - перисто-кучевые, Ac - высококучевые, As - высокослоистые, Sc - слоисто-кучевые, Ns - слоисто-дождевые, Cu - кучевые, Cb - кучево-дождевые. Подробнее классификацию облаков см. в Атласе облаков (PDF).
T - Температура воздуха - температура, измеренная на высоте 2 м над землей.
Td - Температура точки росы - температура, при понижении до которой содержащийся в воздухе водяной пар достигнет насыщения.
f - Относительная влажность воздуха - влажноcть воздуха, измеренная на высоте 2 м над землей.
Te - Эффективная температура - температура, которую ощущает одетый по сезону человек в тени. Характеристика душности погоды. При расчете учитывается влияние влажности воздуха и скорости ветра на теплоощущения человека.
Tes - Эффективная температура на солнце - температура, которую ощущает человек, с поправкой на солнечный нагрев. Характеристика знойности погоды. Зависит от высоты солнца над горизонтом, облачности и скорости ветра. Ночью, в пасмурную погоду, а также при ветре 12 м/с и более поправка равна нулю.
P - Атмосферное давление - приведенное к уровню моря атмосферное давление.
Po - Атмосферное давление - измеренное на уровне метеостанции атмосферное давление.
Tmin - Минимальная температура - минимум температуры воздуха на высоте 2 м над землей.
Tmax - Максимальная температура - максимум температуры воздуха на высоте 2 м над землей.
R - Количество осадков - Количество выпавших осадков, мм. При наведении курсора мыши на число - период времени, за который выпало указанное количество осадков.
S - Снежный покров - Высота снежного покрова, см. При наведении курсора мыши на число - состояние снежного покрова и степень покрытия местности в баллах.